This is the latest recevied weather packets stored in our database for station/object JF2ZGN-13. If no packets are shown the sender has not sent any weather packets the latest 10 day(s).
| Time | Temp. | Humidity | Pressure | Rain* | Wind** | Luminosity | Snow |
|---|---|---|---|---|---|---|---|
| 1777714409 | 15.56° C | 38% | 904.9 hPa | 0 mm | - | - | - |
| 1777713808 | 15.56° C | 37% | 904.8 hPa | 0 mm | - | - | - |
| 1777713209 | 15.56° C | 35% | 904.7 hPa | 0 mm | - | - | - |
| 1777712607 | 15.56° C | 35% | 904.7 hPa | 0 mm | - | - | - |
| 1777712010 | 15.56° C | 35% | 904.6 hPa | 0 mm | - | - | - |
| 1777711406 | 15.56° C | 34% | 904.6 hPa | 0 mm | - | - | - |
| 1777710807 | 15.56° C | 34% | 904.5 hPa | 0 mm | - | - | - |
| 1777710206 | 15° C | 33% | 904.5 hPa | 0 mm | - | - | - |
| 1777709605 | 15° C | 37% | 904.4 hPa | 0 mm | - | - | - |
| 1777709005 | 15° C | 49% | 904.3 hPa | 0 mm | - | - | - |
| 1777708404 | 15.56° C | 52% | 904.2 hPa | 0 mm | - | - | - |
| 1777707804 | 15.56° C | 55% | 904.1 hPa | 0 mm | - | - | - |
| 1777707204 | 15.56° C | 53% | 904 hPa | 0 mm | - | - | - |
| 1777706603 | 16.11° C | 51% | 903.9 hPa | 0 mm | - | - | - |
| 1777706002 | 16.67° C | 50% | 903.9 hPa | 0 mm | - | - | - |
| 1777705402 | 17.22° C | 47% | 903.8 hPa | 0 mm | - | - | - |
| 1777704801 | 17.78° C | 45% | 903.5 hPa | 0 mm | - | - | - |
| 1777704201 | 18.33° C | 44% | 903.6 hPa | 0 mm | - | - | - |
| 1777703601 | 18.89° C | 43% | 903.2 hPa | 0 mm | - | - | - |
| 1777702399 | 19.44° C | 31% | 903.1 hPa | 0 mm | - | - | - |
| 1777701799 | 19.44° C | 29% | 902.9 hPa | 0 mm | - | - | - |
| 1777701199 | 19.44° C | 28% | 903 hPa | 0 mm | - | - | - |
| 1777700598 | 19.44° C | 34% | 902.9 hPa | 0 mm | - | - | - |
| 1777699397 | 19.44° C | 35% | 902.7 hPa | 0 mm | - | - | - |
| 1777698197 | 20° C | 43% | 902.5 hPa | 0 mm | - | - | - |
* Rain since midnight (hover to see other rain measurements)
** Current wind speed in m/s (hover to see current wind gust speed)